Stations météo

réclame
Mon MeteoGroup
Brodersby-Schönhagen, Allemagne (10042): Température de l'air & dewpoint: 07.12.2017 00:00:00 - 13.12.2017 00:00:00 (CET)Brodersby-Schönhagen, Allemagne (10042): Température de l'air 5cm & Température de l'air -5cm: 07.12.2017 00:00:00 - 13.12.2017 00:00:00 (CET)Brodersby-Schönhagen, Allemagne (10042): Température de l'air -20cm & Température de l'air -100cm: 07.12.2017 00:00:00 - 13.12.2017 00:00:00 (CET)Brodersby-Schönhagen, Allemagne (10042): Vitesse du vent & gusts: 07.12.2017 00:00:00 - 13.12.2017 00:00:00 (CET)Brodersby-Schönhagen, Allemagne (10042): Direction du vent: 07.12.2017 00:00:00 - 13.12.2017 00:00:00 (CET)Brodersby-Schönhagen, Allemagne (10042): reduced air pressure: 07.12.2017 00:00:00 - 13.12.2017 00:00:00 (CET)Brodersby-Schönhagen, Allemagne (10042): visibility: 07.12.2017 00:00:00 - 13.12.2017 00:00:00 (CET)Brodersby-Schönhagen, Allemagne (10042): Ensoleillement: 07.12.2017 00:00:00 - 13.12.2017 00:00:00 (CET)Brodersby-Schönhagen, Allemagne (10042): Quantités de précipitations: 07.12.2017 00:00:00 - 13.12.2017 00:00:00 (CET)
Date & Time tt [°C] td [°C] tt 5cm [°C] tt -5cm [°C] tt -20cm [°C] tt -100cm [°C] ff [km/h] ff [knt] fx [km/h] fx [knt] dd ppp [hPa] vv [km] sd [min] rr [mm]
13.12.2017 00:00:00 1,5 0,2 0,4 0,5 1,9 6,7 26 14 40 22 SW 1007,1 14 0 0,0
12.12.2017 23:00:00 1,6 0,3 0,3 0,5 1,9 6,7 23 12 33 18 SW 1006,8 15 0 0,0
12.12.2017 22:00:00 1,6 0,2 0,3 0,5 2,0 6,7 19 11 28 15 SSW 1007,0 25 0 0,0
12.12.2017 21:00:00 1,4 -0,4 0,5 0,5 2,1 6,7 18 10 24 13 SW 1006,8 26 0 0,0
12.12.2017 20:00:00 0,7 -0,9 -0,3 0,5 2,1 6,7 14 8 20 11 SW 1006,5 24 0 0,0
12.12.2017 19:00:00 0,5 -1,2 -0,6 0,6 2,2 6,7 15 8 23 12 WSW 1005,9 21 0 0,0
12.12.2017 18:00:00 0,5 -1,4 -0,3 0,6 2,4 6,7 17 9 21 12 WSW 1004,9 21 0 0,0
12.12.2017 17:00:00 0,5 -1,9 -1,0 0,7 2,6 6,8 12 7 21 11 W 1003,9 28 0 0,0
12.12.2017 16:00:00 1,7 -1,5 0,2 1,5 2,6 6,8 13 7 26 14 WNW 1002,5 34 0 0,0
12.12.2017 15:00:00 2,0 -0,8 1,2 2,0 2,6 6,8 16 9 29 15 WNW 1000,8 27 3 0,0
12.12.2017 14:00:00 2,1 -0,7 1,7 2,1 2,6 6,8 18 10 41 22 WNW 999,4 29 0 0,0
12.12.2017 13:00:00 2,4 -0,6 1,9 2,1 2,6 6,8 22 12 36 19 NW 998,0 35 0 0,0
12.12.2017 12:00:00 2,2 0,2 1,4 2,1 2,6 6,8 25 14 35 19 WNW 996,7 20 0 0,0
12.12.2017 11:00:00 2,5 0,5 1,6 2,1 2,6 6,8 27 15 39 21 NW 995,1 13 0 0,1
12.12.2017 10:00:00 2,9 0,8 2,0 2,1 2,5 6,8 23 13 36 19 NW 993,5 43 0 0,0
12.12.2017 09:00:00 2,6 1,3 2,0 2,1 2,5 6,8 27 15 43 23 NW 991,4 12 0 0,0
12.12.2017 08:00:00 2,7 1,3 2,2 2,1 2,5 6,8 28 15 39 21 NW 989,8 22 0 0,0
12.12.2017 07:00:00 3,0 1,7 2,3 2,0 2,4 6,8 24 13 34 18 NNW 987,9 30 0 0,0
12.12.2017 06:00:00 2,5 1,5 1,9 1,8 2,4 6,9 20 11 32 17 NNW 987,2 35 0 0,2
12.12.2017 05:00:00 2,0 1,3 1,4 1,6 2,4 6,9 18 10 29 15 NNW 986,0 9 0 1,4
12.12.2017 04:00:00 1,8 1,0 1,1 1,8 2,4 6,9 18 10 29 16 NNW 985,3 7 0 0,9
12.12.2017 03:00:00 2,1 1,3 1,6 1,9 2,4 6,9 22 12 31 17 NNE 984,8 9 0 0,5
12.12.2017 02:00:00 2,1 1,2 1,5 1,8 2,4 6,9 26 14 32 17 NE 984,5 7 0 0,2
12.12.2017 01:00:00 2,2 1,1 1,6 1,8 2,3 6,9 27 14 37 20 NE 984,1 21 0 0,2
12.12.2017 00:00:00 2,1 1,1 1,6 1,8 2,3 6,9 31 17 42 23 NE 984,6 10 0 0,4
11.12.2017 23:00:00 2,1 1,2 1,5 1,7 2,3 6,9 37 20 51 28 NE 984,4 8 0 0,8
11.12.2017 22:00:00 2,2 1,1 1,6 1,7 2,3 6,9 41 22 53 29 NE 984,5 10 0 0,2
11.12.2017 21:00:00 1,9 1,0 1,4 1,6 2,3 7,0 41 22 51 27 NE 984,4 6 0 0,4
11.12.2017 20:00:00 1,5 0,9 1,0 1,5 2,3 7,0 35 19 44 24 NNE 985,3 2,9 0 1,7
11.12.2017 19:00:00 1,8 0,9 1,3 1,7 2,2 7,0 31 17 46 25 NE 985,6 2,5 0 0,7
11.12.2017 18:00:00 1,9 1,0 1,3 1,6 2,2 7,0 37 20 49 26 NE 985,1 4,2 0 0,9
11.12.2017 17:00:00 2,3 0,4 1,5 1,7 2,2 7,0 36 19 45 24 NE 986,0 5 0 0,1
11.12.2017 16:00:00 2,6 0,4 1,9 1,6 2,1 7,0 36 20 43 23 NE 985,7 11 0 0,0
11.12.2017 15:00:00 2,4 0,0 1,9 1,6 2,1 7,0 32 17 41 22 NE 986,5 19 0 0,0
11.12.2017 14:00:00 2,5 -0,1 2,0 1,6 2,0 7,0 29 16 37 20 NE 987,3 23 0 0,0
11.12.2017 13:00:00 2,5 -0,3 2,0 1,5 1,9 7,0 29 16 37 20 NE 986,6 26 0 0,0
11.12.2017 12:00:00 2,4 -0,6 1,8 1,3 1,9 7,1 27 14 39 21 NE 987,7 25 0 0,0
11.12.2017 11:00:00 2,5 -0,5 1,8 1,1 1,8 7,1 27 15 40 22 NE 987,6 39 0 0,0
11.12.2017 10:00:00 2,2 -0,7 1,5 0,9 1,8 7,1 29 16 41 22 NE 986,0 28 0 0,0
11.12.2017 09:00:00 2,0 -1,3 1,3 0,7 1,8 7,1 35 19 45 24 NE 985,2 39 0 0,0
11.12.2017 08:00:00 1,8 -1,4 1,1 0,6 1,8 7,1 27 15 34 18 NNE 985,3 28 0 0,0
11.12.2017 07:00:00 1,7 -1,5 1,1 0,6 1,8 7,1 24 13 39 21 NNE 986,0 42 0 0,0
11.12.2017 06:00:00 1,5 -1,4 0,8 0,5 1,8 7,1 29 15 39 21 NE 983,7 32 0 0,0
11.12.2017 05:00:00 1,2 -1,5 0,5 0,5 1,8 7,1 29 16 44 24 NE 983,1 34 0 0,0
11.12.2017 04:00:00 0,9 -1,0 0,2 0,5 1,8 7,2 37 20 49 26 ENE 981,8 6 0 0,1
11.12.2017 03:00:00 0,7 -0,5 0,1 0,5 1,8 7,2 40 22 49 26 ENE 980,7 2,9 0 0,1
11.12.2017 02:00:00 0,9 -1,3 -0,1 0,5 1,9 7,2 32 17 44 24 E 979,8 4,9 0 0,1
11.12.2017 01:00:00 0,6 -1,7 0,0 0,5 1,9 7,2 35 19 45 25 E 979,8 2,6 0 0,0
11.12.2017 00:00:00 1,0 -2,1 0,5 0,5 1,9 7,2 36 19 54 29 ESE 979,9 33 0 0,0
10.12.2017 23:00:00 1,1 -2,1 0,5 0,5 1,9 7,2 43 23 53 28 ESE 980,0 42 0 0,0
10.12.2017 22:00:00 1,1 -1,7 0,4 0,5 2,0 7,2 45 24 54 29 ESE 980,1 43 0 0,0
10.12.2017 21:00:00 0,8 -1,9 0,2 0,5 2,0 7,2 37 20 54 29 SE 980,6 49 0 0,0
10.12.2017 20:00:00 0,7 -1,4 0,0 0,6 2,0 7,2 28 15 42 23 SE 981,2 35 0 0,0
10.12.2017 19:00:00 0,5 -0,7 -0,1 0,6 2,1 7,3 29 16 45 24 SE 982,1 24 0 0,5
10.12.2017 18:00:00 0,8 -1,0 0,3 0,8 2,1 7,3 32 18 43 23 SE 982,8 3,7 0 0,0
10.12.2017 17:00:00 1,4 -1,2 0,8 0,8 2,2 7,3 26 14 39 21 SE 983,5 30 0 0,0
10.12.2017 16:00:00 1,4 -2,3 0,7 0,9 2,2 7,3 22 12 36 19 SSE 984,4 38 0 0,0
10.12.2017 15:00:00 1,1 -2,2 0,5 1,0 2,1 7,3 19 10 42 23 SSE 985,4 22 0 0,0
10.12.2017 14:00:00 1,0 -2,1 0,4 1,0 2,1 7,3 18 10 30 16 S 986,7 20 0 0,0
10.12.2017 13:00:00 0,9 -1,5 0,5 0,9 2,1 7,3 16 9 35 19 S 987,9 13 0 0,0
10.12.2017 12:00:00 0,9 -1,2 0,5 0,7 2,1 7,3 16 9 33 18 SSW 989,1 10 0 0,0
10.12.2017 11:00:00 0,9 -1,0 0,3 0,7 2,1 7,3 20 11 41 22 SSW 990,8 11 8 0,0
10.12.2017 10:00:00 0,8 -1,1 0,0 0,7 2,1 7,3 24 13 37 20 SSW 991,7 10 0 0,0
10.12.2017 09:00:00 0,8 -0,9 -0,1 0,6 2,2 7,3 26 14 39 21 SSW 992,6 9 0 0,0
10.12.2017 08:00:00 0,7 -0,5 0,1 0,6 2,2 7,4 27 14 44 24 SSW 993,3 6 0 0,0
10.12.2017 07:00:00 0,5 -0,1 -0,1 0,6 2,3 7,4 28 15 40 22 SSW 994,2 2,7 0 0,3
10.12.2017 06:00:00 0,4 0,2 -0,1 0,7 2,4 7,4 25 14 41 22 SSW 995,0 1,6 0 0,8
10.12.2017 05:00:00 0,3 -0,1 -0,1 0,9 2,4 7,4 32 18 48 26 SSW 995,6 0,8 0 0,3
10.12.2017 04:00:00 0,6 0,0 0,0 1,2 2,4 7,4 31 17 48 26 SW 996,2 2,1 0 0,0
10.12.2017 03:00:00 1,3 0,1 0,8 1,2 2,4 7,4 31 17 47 25 SW 997,2 28 0 0,0
10.12.2017 02:00:00 1,1 0,2 0,7 1,0 2,4 7,4 29 15 42 23 SW 997,7 44 0 0,0
10.12.2017 01:00:00 1,2 0,3 0,7 0,8 2,5 7,4 29 15 41 22 SW 998,6 25 0 0,1
10.12.2017 00:00:00 1,1 0,4 0,5 0,8 2,5 7,4 24 13 35 19 SW 999,2 14 0 0,1
09.12.2017 23:00:00 0,8 0,2 0,2 0,7 2,6 7,4 22 12 31 17 SW 999,6 5 0 0,2
09.12.2017 22:00:00 0,6 0,3 0,0 0,8 2,7 7,5 14 7 39 21 SSW 1000,2 15 0 0,9
09.12.2017 21:00:00 1,0 0,4 0,6 1,1 2,8 7,5 27 14 38 20 SSW 1000,6 47 0 0,0
09.12.2017 20:00:00 1,3 0,2 0,8 1,1 2,9 7,5 24 13 33 18 SW 1001,1 69 0 0,0
09.12.2017 19:00:00 1,5 -0,1 0,5 1,1 3,0 7,5 22 12 39 21 SW 1000,8 70 0 0,0
09.12.2017 18:00:00 2,1 -0,2 0,8 1,4 3,2 7,5 13 7 37 20 WSW 1001,0 53 0 0,0
09.12.2017 17:00:00 1,5 0,3 0,5 1,6 3,3 7,5 18 10 48 26 SW 1001,1 49 0 0,3
09.12.2017 16:00:00 2,3 0,9 1,5 2,3 3,3 7,5 27 15 40 21 W 1001,5 18 3 0,2
09.12.2017 15:00:00 2,0 -0,2 0,7 2,6 3,3 7,5 16 9 33 18 W 1001,3 70 10 0,3
09.12.2017 14:00:00 2,9 -0,4 1,9 3,3 3,2 7,5 29 15 47 26 WNW 1001,4 12 10 0,0
09.12.2017 13:00:00 4,1 0,2 3,5 3,1 3,0 7,5 27 14 37 20 W 1000,8 35 39 0,0
09.12.2017 12:00:00 3,9 1,1 3,5 2,8 2,9 7,5 23 12 35 19 WSW 1000,7 28 50 0,0
09.12.2017 11:00:00 3,3 1,2 3,2 1,9 2,8 7,5 22 12 33 18 WSW 1000,6 37 19 0,0
09.12.2017 10:00:00 2,5 1,0 1,8 1,5 2,8 7,5 28 15 50 27 W 1000,4 24 0 0,1
09.12.2017 09:00:00 2,7 0,9 1,8 1,3 2,9 7,6 27 14 46 25 W 999,8 34 0 0,0
09.12.2017 08:00:00 1,8 0,9 1,0 1,4 2,9 7,6 24 13 34 18 WSW 999,3 51 0 0,0
09.12.2017 07:00:00 2,0 1,0 1,0 1,7 2,9 7,6 18 10 28 15 SW 998,8 56 0 0,2
09.12.2017 06:00:00 3,1 1,8 2,2 1,7 2,9 7,6 21 12 30 16 W 998,6 62 0 0,0
09.12.2017 05:00:00 2,7 1,7 1,9 1,7 2,8 7,6 22 12 37 20 WSW 998,2 63 0 0,5
09.12.2017 04:00:00 2,3 1,2 1,7 1,2 2,8 7,6 25 14 45 24 SW 998,5 11 0 0,2
09.12.2017 03:00:00 1,5 0,3 0,6 0,9 2,9 7,6 25 13 40 21 SW 998,8 25 0 0,0
09.12.2017 02:00:00 1,2 0,3 0,3 0,8 3,0 7,6 28 15 46 25 SW 998,9 20 0 0,1
09.12.2017 01:00:00 1,3 0,3 0,5 1,0 3,1 7,6 32 17 44 24 SW 999,6 16 0 0,6
09.12.2017 00:00:00 1,2 0,4 0,1 1,1 3,3 7,6 33 18 48 26 SW 1000,2 3,2 0 0,3
08.12.2017 23:00:00 1,4 -0,1 0,5 1,2 3,4 7,6 26 14 39 21 SW 1000,4 53 0 0,0
08.12.2017 22:00:00 1,9 0,0 1,0 1,4 3,5 7,6 27 14 40 22 SW 1000,2 60 0 0,0
08.12.2017 21:00:00 2,0 0,6 1,2 1,7 3,6 7,6 25 14 39 21 WSW 1000,3 56 0 0,0
08.12.2017 20:00:00 1,5 0,0 0,8 1,5 3,7 7,6 24 13 50 27 WSW 1000,1 58 0 0,1
08.12.2017 19:00:00 2,3 0,2 1,3 1,7 3,8 7,6 23 12 42 23 WSW 999,7 44 0 0,0
08.12.2017 18:00:00 2,2 -0,1 1,1 1,8 4,0 7,6 20 11 37 20 SW 999,0 36 0 0,0
08.12.2017 17:00:00 2,6 0,8 1,5 2,2 4,2 7,6 23 12 34 18 SW 999,0 34 0 0,0
08.12.2017 16:00:00 3,1 0,6 2,2 2,7 4,2 7,6 24 13 33 18 WSW 998,8 43 0 0,0
08.12.2017 15:00:00 2,8 1,4 2,2 3,1 4,3 7,6 23 12 38 20 SW 998,4 54 0 0,0
08.12.2017 14:00:00 2,8 1,5 2,3 3,2 4,3 7,6 24 13 36 19 SW 998,7 43 0 0,0
08.12.2017 13:00:00 2,7 1,6 2,2 3,1 4,3 7,6 25 14 35 19 SW 998,7 56 0 0,6
08.12.2017 12:00:00 2,5 1,6 2,1 3,0 4,3 7,6 20 11 35 19 SW 999,0 19 0 0,2
08.12.2017 11:00:00 2,6 1,6 2,1 2,9 4,4 7,6 25 13 32 18 SW 998,8 58 0 0,0
08.12.2017 10:00:00 2,4 1,6 1,8 2,5 4,5 7,6 24 13 35 19 SSW 998,5 33 0 0,0
08.12.2017 09:00:00 1,7 1,2 1,1 2,6 4,7 7,6 17 9 29 16 SSW 998,2 24 0 1,1
08.12.2017 08:00:00 1,5 0,9 1,1 2,9 4,8 7,6 25 13 40 22 SSW 997,9 27 0 1,3
08.12.2017 07:00:00 2,4 1,4 1,7 3,3 5,0 7,6 27 15 44 24 SW 998,1 35 0 1,9
08.12.2017 06:00:00 3,2 1,6 2,3 3,8 5,1 7,5 32 17 49 27 WSW 998,1 8 0 1,0
08.12.2017 05:00:00 5,3 2,0 4,0 3,8 5,2 7,5 22 12 31 17 WSW 997,6 31 0 0,0
08.12.2017 04:00:00 4,8 2,6 3,2 3,8 5,3 7,5 18 10 26 14 WSW 997,2 23 0 0,1
08.12.2017 03:00:00 5,2 2,9 4,2 4,0 5,5 7,5 19 10 29 16 SW 997,4 20 0 0,0
08.12.2017 02:00:00 5,6 3,2 4,4 4,5 5,6 7,5 22 12 32 17 SW 997,3 22 0 0,0
08.12.2017 01:00:00 6,2 3,8 5,2 5,0 5,6 7,5 21 12 34 19 SW 997,3 25 0 0,0
08.12.2017 00:00:00 6,4 5,0 5,5 5,1 5,6 7,5 21 11 47 26 SW 997,3 18 0 0,0
07.12.2017 23:00:00 6,7 5,3 5,8 5,3 5,6 7,5 26 14 40 21 SW 997,2 16 0 0,0
07.12.2017 22:00:00 6,6 5,4 5,7 5,3 5,6 7,5 23 12 49 26 SW 997,4 15 0 0,0
07.12.2017 21:00:00 6,5 5,2 5,9 5,4 5,6 7,5 32 18 54 29 WSW 997,6 14 0 0,8
07.12.2017 20:00:00 6,4 4,9 5,4 5,3 5,6 7,5 38 20 58 31 SW 998,2 4,4 0 1,9
07.12.2017 19:00:00 5,9 4,6 5,0 5,1 5,6 7,5 35 19 59 32 SW 998,8 7 0 1,1
07.12.2017 18:00:00 5,5 4,2 4,7 5,0 5,6 7,5 38 20 56 31 SW 999,5 3,8 0 0,6
07.12.2017 17:00:00 5,3 4,2 4,5 5,0 5,7 7,5 33 18 61 33 SW 1000,6 4,2 0 0,6
07.12.2017 16:00:00 5,4 3,9 4,6 5,1 5,7 7,5 40 22 63 34 SSW 1001,4 8 0 0,3
07.12.2017 15:00:00 5,8 3,4 5,2 5,1 5,8 7,5 39 21 63 34 SSW 1002,6 8 0 0,0
07.12.2017 14:00:00 6,0 2,5 5,6 5,2 5,8 7,5 37 20 64 34 SW 1003,8 16 0 0,0
07.12.2017 13:00:00 5,9 2,3 5,6 5,3 5,8 7,4 39 21 56 31 SW 1005,3 19 0 0,0
07.12.2017 12:00:00 5,6 2,3 5,4 5,3 5,8 7,4 38 21 67 36 SW 1006,4 20 0 0,0
07.12.2017 11:00:00 5,6 2,4 4,7 5,3 5,9 7,4 40 22 63 34 SW 1007,9 12 0 0,0
07.12.2017 10:00:00 6,0 2,0 4,9 5,1 5,9 7,4 44 24 63 34 SW 1008,6 11 0 0,0
07.12.2017 09:00:00 6,0 2,0 5,5 5,1 6,0 7,4 47 25 61 33 SW 1009,4 14 0 0,0
07.12.2017 08:00:00 6,4 1,9 5,9 5,3 6,1 7,4 44 24 69 37 SW 1010,2 15 0 0,0
07.12.2017 07:00:00 6,7 2,4 6,2 5,5 6,2 7,4 45 24 65 35 SW 1011,1 19 0 0,0
07.12.2017 06:00:00 7,3 3,1 6,7 5,8 6,3 7,4 43 23 70 38 SW 1011,4 16 0 0,0
07.12.2017 05:00:00 7,5 3,7 6,9 6,0 6,4 7,4 37 20 62 34 SW 1012,2 14 0 0,0
07.12.2017 04:00:00 7,7 4,3 7,1 6,2 6,4 7,4 40 22 61 33 SW 1013,4 11 0 0,0
07.12.2017 03:00:00 7,8 4,7 7,3 6,4 6,4 7,4 41 22 61 33 WSW 1014,2 9 0 0,0
07.12.2017 02:00:00 7,9 4,9 7,5 6,5 6,5 7,4 41 22 59 32 WSW 1014,7 10 0 0,0
07.12.2017 01:00:00 8,1 5,2 7,6 6,5 6,5 7,4 38 20 57 31 WSW 1015,3 12 0 0,0
07.12.2017 00:00:00 8,1 4,8 7,5 6,5 6,5 7,3 37 20 61 33 WSW 1016,3 32 0 0,0

tt = Température de l'air
td = dewpoint
tt 5cm = Température de l'air 5cm
tt -5cm = Température de l'air -5cm
tt -20cm = Température de l'air -20cm
tt -100cm = Température de l'air -100cm
ff = Vitesse du vent
fx = gusts
dd = Direction du vent
ppp = reduced air pressure
vv = visibility
sd = Ensoleillement
rr = Quantités de précipitations

stations d'obs. à proximité